Location: Unspecified
(52.4292°N, 19.3359°E)
Time: 17:26:57
(UTC+02:00)

Transit 2A Rocket - Pass Details

Date: 22 May 2024
Orbit: 583 x 910 km, 66.7° (Epoch: 22 June)

Event Time Altitude Azimuth Distance (km) Brightness Sun altitude
Rises 10:42:25 0° 316° (NW) 3,307 7.9 50.9°
Reaches altitude 10° 10:45:07 10° 328° (NNW) 2,428 7.3 51.2°
Maximum altitude 10:49:59 28° 27° (NNE) 1,553 6.8 51.7°
Drops below altitude 10° 10:55:05 10° 86° (E) 2,564 8.2 52.3°
Sets 10:58:00 0° 97° (E) 3,525 8.8 52.5°
